Terug naar catalogus

STARLINK-33865

ActiefCommunicatieVLEO
NORAD 64247·PAYLOAD·🇺🇸 United States

Gelanceerd Jun 3, 2025 vanaf Cape Canaveral Space Force Station

Loading…

Volgende Passages (komende 24 uur)

TLE

VersSource: CelesTrak SupGP

Epoch: Sep 15, 2026, 02:46 UTC

1 64247C 25119Q   26258.11576389  .00044899  00000+0  16261-2 0  2583
2 64247  43.0010 316.9787 0001403 265.8844  70.1083 15.27558677    12

Volg STARLINK-33865 in realtime met AllMySat

Download on the App Store